Find Local Weather

World > North America > United States > Illinois

Barrington, Illinois Regional Weather

Lat: 42.15N, Lon: 88.13W
Wx Zone: ILZ006
Feedback
Expires:201805211800;;310986
ASUS43 KLOT 211708
RWRIL 

ILLINOIS REGIONAL WEATHER ROUNDUP
NATIONAL WEATHER SERVICE CHICAGO/ROMEOVILLE IL
1200 PM CDT MON MAY 21 2018

NOTE: "FAIR" INDICATES FEW OR NO CLOUDS BELOW 12,000 FEET WITH NO
SIGNIFICANT WEATHER AND/OR OBSTRUCTIONS TO VISIBILITY.

* THESE STATIONS ARE NOT UNDER NWS QUALITY CONTROL. THEY ALSO MAY NOT
  REPORT WEATHER SUCH AS PRECIPITATION OR FOG.


ILZ005-006-012>014-019>023-211800-
NORTHEAST ILLINOIS
  
CITY           SKY/WX    TMP DP  RH WIND       PRES   REMARKS
CHICAGO-OHARE  LGT RAIN  56  55  97 N6        30.10F FOG              
CHICAGO-MIDWAY LGT RAIN  57  57 100 NW5       30.11R FOG              
AURORA         RAIN      59  58  96 E10       30.07F FOG              
LANSING*       RAIN      63  61  96 S9        30.11R                  
JOLIET*        RAIN      61  61 100 NE6       30.08F                  
WAUKEGAN       LGT RAIN  53  53 100 E7        30.11F FOG              
DUPAGE AIRPORT RAIN      57  57 100 E7        30.09F FOG              
KANKAKEE*      CLOUDY    66  64  92 SE10      30.08F FOG              
WHEELING       LGT RAIN  56  55  97 NE3       30.13S FOG              
MORRIS*        RAIN      61  60  96 E6        30.07F                  
ROMEOVILLE*    RAIN      59  58  97 NE7       30.08F                  
NORTHERLY ISL    N/A     56  54  93 SE1         N/A                   
$$


SKY/WX - Weather  TMP - Temperature  DP - Dewpoint  RH - Relative Humidity
WIND - Wind Direction/Speed PRES - Barometric Pressure